This is the latest recevied weather packets stored in our database for station/object EW8324. If no packets are shown the sender has not sent any weather packets the latest 1 day(s).
| Time | Temp. | Humidity | Pressure | Rain* | Wind** | Luminosity | Snow |
|---|---|---|---|---|---|---|---|
| 1777987852 | 23.89° C | 84% | 1005 hPa | 0 mm | 0 m/s | 58 W/m² | - |
| 1777987543 | 23.89° C | 84% | 1005.1 hPa | 0 mm | 0 m/s | 35 W/m² | - |
| 1777987247 | 23.89° C | 84% | 1005.1 hPa | 0 mm | 0 m/s | 39 W/m² | - |
| 1777986943 | 23.33° C | 84% | 1004.8 hPa | 0 mm | 0 m/s | 77 W/m² | - |
| 1777986787 | 23.33° C | 83% | 1004.7 hPa | 0 mm | 0 m/s | 84 W/m² | - |
| 1777986358 | 23.33° C | 83% | 1004.7 hPa | 0 mm | 0 m/s | 70 W/m² | - |
| 1777986045 | 23.33° C | 83% | 1004.7 hPa | 0 mm | 0 m/s | 65 W/m² | - |
| 1777985741 | 23.33° C | 83% | 1004.3 hPa | 0 mm | 0 m/s | 74 W/m² | - |
| 1777985444 | 23.33° C | 83% | 1004.2 hPa | 0 mm | 0 m/s | 100 W/m² | - |
| 1777985142 | 22.78° C | 83% | 1004.1 hPa | 0 mm | 0 m/s | 70 W/m² | - |
| 1777984843 | 22.78° C | 82% | 1004.4 hPa | 0 mm | 0 m/s | 69 W/m² | - |
| 1777984542 | 22.78° C | 82% | 1004.6 hPa | 0 mm | 0 m/s | 60 W/m² | - |
| 1777984246 | 22.78° C | 82% | 1004.5 hPa | 0 mm | 0 m/s | 44 W/m² | - |
| 1777983941 | 22.78° C | 82% | 1004.5 hPa | 0 mm | 0 m/s | 67 W/m² | - |
| 1777983646 | 22.78° C | 82% | 1004.6 hPa | 0 mm | 0 m/s | 39 W/m² | - |
| 1777983341 | 22.78° C | 82% | 1004.4 hPa | 0 mm | 0 m/s | 21 W/m² | - |
| 1777983106 | 22.78° C | 83% | 1004.5 hPa | 0 mm | 0 m/s | 12 W/m² | - |
| 1777982741 | 22.22° C | 83% | 1004.1 hPa | 0 mm | 0 m/s | 14 W/m² | - |
| 1777982446 | 22.22° C | 83% | 1004.1 hPa | 0 mm | 0 m/s | 12 W/m² | - |
| 1777982201 | 22.22° C | 83% | 1004 hPa | 0 mm | 0 m/s | 12 W/m² | - |
| 1777981842 | 22.22° C | 83% | 1003.9 hPa | 0 mm | 0 m/s | 7 W/m² | - |
| 1777981600 | 22.22° C | 83% | 1004 hPa | 0 mm | 0 m/s | 0 W/m² | - |
| 1777981242 | 22.22° C | 83% | 1004.4 hPa | 0 mm | 0 m/s | 0 W/m² | - |
| 1777980939 | 22.22° C | 83% | 1004.5 hPa | 0 mm | 0 m/s | 0 W/m² | - |
| 1777980644 | 22.22° C | 83% | 1004.3 hPa | 0 mm | 0 m/s | 0 W/m² | - |
* Rain latest hour (hover to see other rain measurements)
** Current wind speed in m/s (hover to see current wind gust speed)